Location: La Estación
(39.9833°N, 3.9500°W)
Time: 16:04:38
(UTC+00:00)

CZ-2C R/B - Pass Details

Date: 14 June 2025
Orbit: 413 x 446 km, 97.8° (Epoch: 19 July)

Event Time Altitude Azimuth Distance (km) Brightness Sun altitude
Rises 20:16:07 0° 183° (S) 2,449 5.8 -5.6°
Reaches altitude 10° 20:18:14 10° 191° (S) 1,582 4.9 -5.9°
Maximum altitude 20:21:25 38° 261° (W) 710 3.9 -6.4°
Drops below altitude 10° 20:24:38 10° 331° (NNW) 1,591 6.5 -6.9°
Sets 20:26:46 0° 340° (NNW) 2,465 7.3 -7.2°
